Flag for Philippines Weather past 2 weeks in Mabalacat, Philippines

Now
79 °F

Passing clouds.


Feels Like: 83 °F
Forecast: 75 / 90 °F
Wind: 3 mph from Northwest

Location: Clarkfield Pampanga International Airport

Current Time: Jul 31, 2015 at 1:01:41 AM

Latest Report: Jul 31, 2015 at 12:00 AM


Visibility: N/A

Pressure: 29.89 "Hg

Humidity: 94%

Dew point: 77 °F

Location of MabalacatLocation

Historic Weather in Mabalacat — Graph

°F

Mabalacat temperature yesterday

Maximum temperature yesterday: 91 °F (at 4:00 PM)
Minimum temperature yesterday: 77 °F (at 3:00 AM)
Average temperature yesterday: 83 °F

Past Weeks' High & Low Weather Summary

 TemperatureHumidityPressure
High91 °F (Jul 20, 3:00 PM)100% (Jul 16, 12:00 AM)30.01 "Hg (Jul 16, 12:00 AM)
Low72 °F (Jul 27, 5:00 AM)36% (Jul 20, 5:00 PM)29.74 "Hg (Jul 16, 4:00 AM)
Average80 °F84%29.88 "Hg
* Reported Midnight between Jul 15 and Jul 16 — Midnight between Jul 30 and Jul 31, Mabalacat, Weather by CustomWeather, © 2015

Note: Actual official high and low records may vary slightly from our data, if they occured in-between our weather recording intervals... More about our weather records

Advertising

Mabalacat weather history for previous 24 hours

 ConditionsComfort  
Time TempWeatherWind HumidityBarometerVisibility
12:00 AM
Fri, Jul 31
79 °FPassing clouds.3 mph94%29.89 "HgN/A
11:00 PM
Thu, Jul 30
79 °FPartly cloudy.3 mph94%29.89 "HgN/A
10:00 PM81 °FPassing clouds.3 mph84%29.92 "HgN/A
9:00 PM81 °FPassing clouds.5 mph84%29.89 "HgN/A
8:00 PM81 °FPassing clouds.5 mph89%29.89 "HgN/A
7:00 PM82 °FPassing clouds.1 mph84%29.86 "HgN/A
5:00 PM90 °FPartly sunny.2 mph52%29.80 "HgN/A
4:00 PM91 °FPartly sunny.3 mph49%29.83 "HgN/A
3:00 PM90 °FPartly sunny.5 mph52%29.83 "HgN/A
2:00 PM90 °FPartly sunny.5 mph52%29.86 "HgN/A
1:00 PM88 °FPartly sunny.6 mph55%29.89 "HgN/A
12:00 PM88 °FBroken clouds.7 mph59%29.89 "HgN/A
11:00 AM86 °FBroken clouds.6 mph62%29.89 "HgN/A
10:00 AM86 °FBroken clouds.3 mph70%29.89 "Hg6 mi
9:00 AM84 °FBroken clouds.5 mph79%29.89 "HgN/A
8:00 AM81 °FBroken clouds.5 mph89%29.89 "HgN/A
7:00 AM79 °FPartly sunny.5 mph89%29.89 "HgN/A
6:00 AM77 °FPartly sunny.6 mph94%29.89 "HgN/A
5:00 AM77 °FPassing clouds.3 mph94%29.89 "HgN/A
4:00 AM77 °FPassing clouds.5 mph94%29.89 "HgN/A
3:00 AM77 °FPartly cloudy.5 mph94%29.89 "Hg6 mi
2:00 AM79 °FPartly cloudy.5 mph94%29.89 "Hg6 mi
1:00 AM79 °FPartly cloudy.3 mph89%29.92 "HgN/A
Weather by CustomWeather, © 2015

See weather overviewHow to use our weather pages